Weather History for Douglas Bisbee, AZ

Change the Weather History Date:

Friday, March 15, 2013

  Actual Average Record
Temperature  
Mean Temperature 62 °F 54 °F  
Max Temperature 88 °F 72 °F 88 °F (2013)
Min Temperature 35 °F 37 °F 20 °F (1962)
Degree Days  
Heating Degree Days 3 11  
Month to date heating degree days 164 177  
Since 1 July heating degree days 2368 2213  
Cooling Degree Days 0 0  
Month to date cooling degree days 0 0  
Year to date cooling degree days 0 0  
Growing Degree Days 12 (Base 50)    
Moisture  
Dew Point 9 °F    
Average Humidity 17    
Maximum Humidity 29    
Minimum Humidity 4    
Precipitation  
Precipitation 0.00 in 0.02 in 0.37 in (1985)
Month to date precipitation 0.02 0.29  
Year to date precipitation 0.86 1.68  
Snow  
Snow 0.00 in - - ()
Month to date snowfall 0.0  
Snow Depth 0.00 in    
Sea Level Pressure  
Sea Level Pressure 29.96 in    
Wind  
Wind Speed 7 mph (NW)    
Max Wind Speed 24 mph    
Max Gust Speed 30 mph    
Visibility 10 miles    
Events      
T = Trace of Precipitation, MM = Missing Value Source: NWS Daily Summary

Daily Weather History Graph

Daily Weather History Graph

Search for Another Location

Airport:

Trip Planner

Search our weather history database for the weather conditions in past years. The results will help you decide how hot, cold, wet, or windy it might be!

Date:

Astronomy

Mar. 15, 2013 Rise Set
Actual Time 6:28 AM MST 6:26 PM MST
Civil Twilight 6:03 AM MST 6:51 PM MST
Nautical Twilight 5:35 AM MST 7:19 PM MST
Astronomical Twilight 5:07 AM MST 7:47 PM MST
Moon 8:37 AM MST (3/15) 10:25 PM MST (3/15)
Length of Visible Light 12h 47m
Length of Day
11h 58m
Waxing Crescent, 16% of the Moon is Illuminated
Mar 15
Waxing Crescent
Mar 19
First Quarter
Mar 27
Full
Apr 2
Last Quarter
Apr 10
New

Hourly Weather History & Observations

Time (MST) Temp. Windchill Dew Point Humidity Pressure Visibility Wind Dir Wind Speed Gust Speed Precip Events Conditions
12:56 AM 52.0 °F - 9.0 °F 18% 30.00 in 10.0 mi NNE 11.5 mph - N/A   Clear
1:56 AM 45.0 °F 43.5 °F 7.0 °F 21% 30.01 in 10.0 mi SE 3.5 mph - N/A   Clear
2:56 AM 45.0 °F - 7.0 °F 21% 30.00 in 10.0 mi Calm Calm - N/A   Clear
3:56 AM 39.9 °F - 6.1 °F 25% 30.01 in 10.0 mi Calm Calm - N/A   Clear
4:56 AM 36.0 °F - 7.0 °F 30% 30.03 in 10.0 mi Calm Calm - N/A   Clear
5:56 AM 43.0 °F 40.3 °F 9.0 °F 25% 30.03 in 10.0 mi East 4.6 mph - N/A   Clear
6:56 AM 39.0 °F 34.8 °F 7.0 °F 27% 30.07 in 10.0 mi NW 5.8 mph - N/A   Clear
7:56 AM 53.1 °F - 10.0 °F 18% 30.07 in 10.0 mi Calm Calm - N/A   Clear
8:56 AM 62.1 °F - 10.9 °F 13% 30.05 in 10.0 mi Calm Calm - N/A   Clear
9:56 AM 69.1 °F - 14.0 °F 12% 30.04 in 10.0 mi South 5.8 mph - N/A   Clear
10:56 AM 75.0 °F - 9.0 °F 8% 30.02 in 10.0 mi South 5.8 mph - N/A   Clear
11:56 AM 80.1 °F - 8.1 °F 6% 29.99 in 10.0 mi South 6.9 mph - N/A   Clear
12:56 PM 82.0 °F - 8.1 °F 6% 29.94 in 10.0 mi Calm Calm - N/A   Clear
1:56 PM 84.9 °F - 8.1 °F 5% 29.91 in 10.0 mi Variable 4.6 mph - N/A   Clear
2:56 PM 87.1 °F - 8.1 °F 5% 29.88 in 10.0 mi NW 10.4 mph 17.3 mph N/A   Clear
3:56 PM 87.1 °F - 8.1 °F 5% 29.86 in 10.0 mi NNW 6.9 mph - N/A   Clear
4:56 PM 86.0 °F - 5.0 °F 5% 29.87 in 10.0 mi WNW 18.4 mph 25.3 mph N/A   Clear
5:56 PM 82.0 °F - 1.9 °F 5% 29.86 in 10.0 mi WNW 16.1 mph - N/A   Clear
6:56 PM 71.1 °F - 5.0 °F 8% 29.91 in 10.0 mi West 8.1 mph - N/A   Clear
7:56 PM 69.1 °F - 10.9 °F 11% 29.90 in 10.0 mi NNW 11.5 mph - N/A   Clear
8:56 PM 63.0 °F - 14.0 °F 15% 29.90 in 10.0 mi NNW 11.5 mph - N/A   Clear
10:56 PM 61.0 °F - 18.0 °F 19% 29.89 in 10.0 mi North 10.4 mph - N/A   Clear
11:56 PM 59.0 °F - 17.1 °F 20% 29.87 in 10.0 mi North 10.4 mph - N/A   Clear